Погода в Сорочинске

Погода в Сорочинске : погода сейчас, прогноз погоды и архив. Всё, что Вы хотите узнать о погоде в Сорочинске!

Хотите узнать прогноз погоды в Сорочинске? Тогда Вам сюда: Погода в Сорочинске

Поиск расширенной информации на нашем сайте:

Другие новости

Новости СМИ2

Главная страница сайта

Новости сайта

03.07.2017

Напоминаем, что на нашем специализированном сайте Метеоцентр.Азия вы можете получить высокодетализированные автоматические прогнозы погоды по пунктам России, СНГ и мира в авиационном формате (включающие направление и скорость ветра, видимость, явления погоды, количество и форму облачности, нижнюю и верхнюю границу облачности).


Погода в Сорочинске - сегодня

Время (UTC), дата Ветер
(°,м/с) 
Видим.   Явления Облачность Т
(°С)
Тd
(°С)
f(%) Тe
(°С)
Pmin
(гПа)
dP
(гПа)
Po
(мм)
O2
(г/м3)
Тmin Tmax R s Состояние
почвы
21 21.05.18 050 (СВ) 20000 м    4/3 1500 м средняя 
[Sc diur, vesp|Ac trans]
+11.2 +5.5 68 +10  1026.2  1.7  758  293           
00 22.05.18 тихо ()   20000 м    ясно 
+7.3 +3.8 78 +7  1027.8  1.3  759  297           
06 22.05.18 060 (СВ) 4{11}  20000 м    ясно 
+17.1 +2.7 38 +17  1029.8  1.2  761  288           
09 22.05.18 050 (СВ) 20000 м    ясно 
+21.7 -0.1 23 +22  1028.4  -1.2  760  284           
12 22.05.18 040 (СВ) 20000 м    ясно 
+24.1 +0.9 22 +24  1027.2  -1  760  281           
15 22.05.18 030 (СВ) 20000 м    ясно 
+23.6 +0.5 22 +24  1026.7  -0.5  759  281    +24.4       
18 22.05.18 280 (З) 20000 м    ясно 
+16.6 +1.2 35 +18  1027.6  0.6  760  288           
21 22.05.18 270 (З) 20000 м    ясно 
+13.1 +2.4 48 +14  1028.1  0.3  760  292           
00 23.05.18 340 (С) 20000 м    3/0 верхняя 
[Ci fib]
+11 +3.4 59 +12  1028.9  0.6  760  294           
03 23.05.18 тихо ()   20000 м    3/0 верхняя 
[Ci fib]
+17 +6.1 49 +17  1028.8  0.3  760  287  +9.1        сухая 
06 23.05.18 070 (В) 20000 м    3/0 верхняя 
[Ci]
+24.3 +6.1 31 +24  1028.7  0.3  761  281           
09 23.05.18 260 (З) 20000 м    ясно 
+27.5 +5.2 24 +28  1027.2  -1.4  760  277           
12 23.05.18 270 (З) 20000 м    ясно 
+28.5 +4.3 21 +29  1025.7  -1.4  759  276           
15 23.05.18 250 (З) 20000 м    ясно 
+27.4 +6.1 26 +27  1024.4  -1.3  758  276    +28.8       
18 23.05.18 250 (З) 20000 м    10/4 600 м верхняя 
[Sc|Ci fib]
+21 +6.3 38 +21  1024.6  -0.2  757  282           
21 23.05.18 тихо ()   20000 м    4/0 верхняя 
[Ci fib]
+14 +7.2 64 +14  1024  -0.8  757  289           
00 24.05.18 130 (ЮВ) 20000 м    6/0 средняя, верхняя 
[Ac trans|Ci fib]
+13.3 +7.4 67 +14  1023.3  -0.8  756  289           
03 24.05.18 110 (В) 20000 м    6/0 средняя, верхняя 
[Ac trans|Ci fib]
+16.6 +9.8 64 +19  1022.6  -0.4  756  285  +11.7        сухая 
06 24.05.18 300 (СЗ) 20000 м    10/0 верхняя 
[Ci]
+26.6 +10 35 +28  1021.1  -1  755  276           
09 24.05.18 050 (СВ) 20000 м    10/0 верхняя 
[Cs]
+28.9 +7.2 25 +29  1019.5  -1.5  754  274           
12 24.05.18 360 (С) 20000 м    10/3 1000 м верхняя 
[Cu hum|Ci]
+30.1 +5.2 21 +30  1017.7  -1.7  753  272           
18 24.05.18 140 (ЮВ) 20000 м    10/3 1000 м верхняя 
[Sc|Ci fib]
+22.7 +7.3 37 +23  1015.5  -0.9  751  278           
21 24.05.18 120 (ЮВ) 20000 м    8/0 средняя, верхняя 
[Ac trans|Ci fib]
+18.8 +7.5 48 +20  1013.5  -2.2  749  281           
00 25.05.18 290 (З) 20000 м    8/0 средняя, верхняя 
[Ac trans|Ci fib]
+14.3 +8 66 +16  1013.1  -0.6  749  285           
03 25.05.18 350 (С) 20000 м    10/6 600 м кучево-дожд., средняя 
[Cb cap|Ac und]
+17.4 +9.8 61 +20  1012.3  -0.6  748  282  +13.3        сухая 
Время (UTC), дата Ветер
(°,м/с) 
Видим.   Явления Облачность Т
(°С)
Тd
(°С)
f(%) Тe
(°С)
Pmin
(гПа)
dP
(гПа)
Po
(мм)
O2
(г/м3)
Тmin Tmax R s Состояние
почвы

Для получения пояснительной информации подведите курсор к названию столбца.

ПОГОДА в Сорочинске - архив

Всё, что Вы хотите узнать о погоде в Сорочинске - удобно и подробно!

Выберите нужную дату (начиная с 1 января 2015* года) и нажмите кнопку "Найти".
Будут отображены архивные сводки погоды по пункту Сорочинск, начиная с указанной даты.


Отображать данные в формате CSV (для использования в таблицах Excel)


Внимание! Наш архив погоды предназначен исключительно для личного некоммерческого использования в познавательных целях. Если Вам необходимы официальные справки о состоянии погоды (для производственных, юридических, коммерческих и т.п. целей), обращайтесь в органы Росгидромета.

*Примечание: данная дата относится к архиву по метеостанциям СССР (Россия, СНГ, Балтия).
Архив по метеостанциям Зарубежной Европы и Азии (кроме Китая) хранится 10 дней, по другим регионам земного шара (Китай, Африка, Америка, Австралия, Океания) - 1 день.

Сорочинск - район местоположения метеостанции


Название, широта, долгота, высота метеостанции:
Сорочинск 52.4°ш. 53.1°д. 123 м над ур. моря [Российская Федерация]

Дополнительная информация

В oтличие oт бoльшинства пoгoдных сайтoв мы публикуем пoдрoбную метеoинфoрмацию в детальнoм прoфессиoнальнoм фoрмате.

Характеристики температуры и влажнoсти вoздуха измеряются на высoте 2 м в тени вдали oт зданий и деревьев.
Скoрoсть ветра измеряется на высoте 10 м (на урoвне рoста челoвека скoрoсть ветра ниже в 1.5-2 раза). Если метеoстанция нахoдится в гoрoде или в лесу, тo скoрoсть ветра занижена на 2-4 м/с пo сравнению с oткрытым местoм. Скoрoсть ветра над акватoриями крупных рек и oзёр, а также на вершинах хoлмoв на 2-5 м/с выше, чем в oбычных услoвиях.
Атмoсфернoе давление в разных тoчках местнoсти мoжет значительнo oтличаться oт давления на метеoстанции, в зависимoсти oт услoвий рельефа (при пoдъёме на 10 м давление пoнижается примернo на 1 мм рт.ст.).